Fernwood, MS

11:53 PM CST on February 24, 2017 (GMT -0600)
McComb-Pike County-Lewis

Weather History for KMCB - October, 2012

Change the Weather History Date:

Sunday, October 28, 2012

  Actual Average Record
Temperature  
Mean Temperature 52 °F -  
Max Temperature 62 °F 75 °F 86 °F (1963)
Min Temperature 41 °F 49 °F 32 °F (1957)
Degree Days  
Heating Degree Days 14    
Growing Degree Days 2 (Base 50)    
Moisture  
Dew Point 36 °F    
Average Humidity 64    
Maximum Humidity 82    
Minimum Humidity 35    
Precipitation  
Precipitation 0.00 in - - ()
Sea Level Pressure  
Sea Level Pressure 30.09 in    
Wind  
Wind Speed 9 mph (NNW)    
Max Wind Speed 20 mph    
Max Gust Speed 25 mph    
Visibility 10 miles    
Events      
Averages and records for this station are not official NWS values.
T = Trace of Precipitation, MM = Missing Value Source: NWS Daily Summary

Daily Weather History Graph

Daily Weather History Graph

Search for Another Location

Airport or City:

Trip Planner

Search our weather history database for the weather conditions in past years. The results will help you decide how hot, cold, wet, or windy it might be!

Date:

Astronomy

Oct. 28, 2012 Rise Set
Actual Time 7:14 AM CDT 6:16 PM CDT
Civil Twilight 6:49 AM CDT 6:41 PM CDT
Nautical Twilight 6:21 AM CDT 7:09 PM CDT
Astronomical Twilight 5:52 AM CDT 7:37 PM CDT
Moon 5:33 PM CDT (10/28) 6:09 AM CDT (10/28)
Length of Visible Light 11h 51m
Length of Day
11h 01m
Waxing Gibbous, 99% of the Moon is Illuminated
Oct 28
Waxing Gibbous
Oct 29
Full
Nov 6
Last Quarter
Nov 13
New
Nov 20
First Quarter

Hourly Weather History & Observations

Time (CDT) Temp. Windchill Dew Point Humidity Pressure Visibility Wind Dir Wind Speed Gust Speed Precip Events Conditions
12:53 AM 45.0 °F 41.2 °F 37.9 °F 76% 30.06 in 10.0 mi NNW 6.9 mph - N/A   Clear
1:53 AM 44.1 °F 39.0 °F 37.0 °F 76% 30.05 in 10.0 mi NNW 9.2 mph - N/A   Clear
2:53 AM 42.1 °F 36.6 °F 37.0 °F 82% 30.05 in 10.0 mi NNW 9.2 mph - N/A   Clear
3:53 AM 41.0 °F 36.4 °F 36.0 °F 82% 30.05 in 10.0 mi NNW 6.9 mph - N/A   Clear
4:53 AM 41.0 °F 36.4 °F 36.0 °F 82% 30.06 in 10.0 mi NNW 6.9 mph - N/A   Clear
5:53 AM 41.0 °F 35.2 °F 36.0 °F 82% 30.07 in 10.0 mi North 9.2 mph - N/A   Clear
6:53 AM 41.0 °F 36.4 °F 36.0 °F 82% 30.08 in 10.0 mi NNW 6.9 mph - N/A   Clear
7:53 AM 41.0 °F 35.2 °F 36.0 °F 82% 30.09 in 10.0 mi NNW 9.2 mph - N/A   Clear
8:53 AM 45.0 °F 39.7 °F 37.0 °F 74% 30.11 in 10.0 mi North 10.4 mph - N/A   Clear
9:53 AM 48.9 °F - 37.0 °F 64% 30.12 in 10.0 mi North 11.5 mph - N/A   Clear
10:53 AM 53.1 °F - 37.9 °F 57% 30.12 in 10.0 mi North 16.1 mph - N/A   Clear
12:53 PM 59.0 °F - 35.1 °F 41% 30.09 in 10.0 mi North 12.7 mph 23.0 mph N/A   Clear
1:53 PM 61.0 °F - 35.1 °F 38% 30.06 in 10.0 mi NNW 19.6 mph 25.3 mph N/A   Clear
2:53 PM 62.1 °F - 34.0 °F 35% 30.06 in 10.0 mi North 10.4 mph 21.9 mph N/A   Clear
3:53 PM 62.1 °F - 34.0 °F 35% 30.05 in 10.0 mi NW 16.1 mph 21.9 mph N/A   Clear
4:53 PM 60.1 °F - 33.1 °F 36% 30.06 in 10.0 mi NNW 12.7 mph - N/A   Clear
5:53 PM 57.0 °F - 34.0 °F 42% 30.08 in 10.0 mi NNW 9.2 mph - N/A   Clear
6:53 PM 52.0 °F - 36.0 °F 54% 30.09 in 10.0 mi NNW 4.6 mph - N/A   Clear
7:53 PM 46.9 °F - 37.0 °F 68% 30.11 in 10.0 mi NNW 5.8 mph - N/A   Clear
8:53 PM 46.9 °F - 37.0 °F 68% 30.13 in 10.0 mi NNW 6.9 mph - N/A   Clear
9:53 PM 46.0 °F 42.5 °F 36.0 °F 68% 30.15 in 10.0 mi NNW 6.9 mph - N/A   Clear
10:53 PM 45.0 °F 41.2 °F 36.0 °F 71% 30.16 in 10.0 mi NNW 6.9 mph - N/A   Clear
11:53 PM 45.0 °F 41.2 °F 36.0 °F 71% 30.17 in 10.0 mi NNW 6.9 mph - N/A   Clear